Location: Glencliff
(36.1226°N, 86.7183°W)
Time: 16:17:22
(UTC+00:00)

H-2A R/B - Pass Details

Date: 25 August 2019
Orbit: 529 x 654 km, 98.3° (Epoch: 23 October)

Event Time Altitude Azimuth Distance (km) Brightness Sun altitude
Rises 09:18:27 0° 18° (NNE) 2,840 6.7 -22.0°
Reaches altitude 10° 09:20:42 10° 23° (NNE) 1,913 5.8 -21.6°
Maximum altitude 09:24:45 52° 100° (E) 713 3.1 -20.9°
Enters shadow 09:26:54 24° 167° (SSE) 1,177 3.8 -20.5°
